Regional Weather Roundup
Issued by NWS Sioux Falls, SD

Home | Current Version | Previous Version | Graphics & Text | Print | Product List | Glossary Off
Versions: 1 2 3 4 5 6 7 8 9 10 11 12 13 14 15 16 17 18 19 20 21 22 23 24 25 26 27 28 29 30 31 32 33 34 35 36 37 38 39 40 41 42 43 44 45 46 47 48 49 50

000
ASUS43 KFSD 270710
RWRFSD

WEATHER ROUNDUP FOR SE SOUTH DAKOTA/SW MINNESOTA/NW IOWA
NATIONAL WEATHER SERVICE SIOUX FALLS SD
200 AM CDT MON APR 27 2015

NOTE: "FAIR" INDICATES FEW OR NO CLOUDS BELOW 12,000 FEET WITH NO
SIGNIFICANT WEATHER AND OR OBSTRUCTIONS TO VISIBILITY.


SDZ038>040-050-052>070-270800-
SOUTHEAST SOUTH DAKOTA

CITY           SKY/WX    TMP DP  RH WIND       PRES   REMARKS
BROOKINGS      CLEAR     37  28  70 CALM      30.19S
CHAMBERLAIN    PTCLDY    42  32  67 CALM      30.15F
HURON          PTCLDY    44  28  53 E6        30.16S
MADISON        FAIR      37  27  65 NE7       30.17F
MITCHELL       CLEAR     42  34  73 E6        30.16S
SIOUX FALLS    CLEAR     42  26  53 NE6       30.15F
WINNER         FAIR      47  29  49 S6        30.15R
YANKTON        CLEAR     45  28  53 NE6       30.13S
$$

MNZ071-072-080-081-089-090-097-098-270800-
SOUTHWEST MINNESOTA

CITY           SKY/WX    TMP DP  RH WIND       PRES   REMARKS
FAIRMONT       CLEAR     39  25  56 W3        30.15S
JACKSON        CLEAR     39  23  52 CALM      30.17S
LUVERNE        CLEAR     45  27  49 NE3       30.17S
MARSHALL       CLEAR     36  19  51 NW7       30.18R
MONTEVIDEO     CLEAR     39  19  45 CALM      30.19R
REDWOOD FALLS  CLEAR     48  21  34 E3        30.17R
WINDOM         CLEAR     36  19  51 CALM      30.17S
WORTHINGTON    CLEAR     36  21  55 W3        30.17S
$$

IAZ001>003-012>014-020>022-031-032-NEZ013-014-SDZ071-270800-
NORTHWEST IOWA

CITY           SKY/WX    TMP DP  RH WIND       PRES   REMARKS
CHEROKEE       CLEAR     40  35  84 NE3       30.16R
DENISON        CLEAR     39  37  93 NE5       30.12S
ESTHERVILLE    CLEAR     36  24  62 NW7       30.15S
LE MARS        CLEAR     39  34  81 CALM      30.16S
ORANGE CITY    CLEAR     43  28  56 E3        30.15S
SHELDON        CLEAR     37  27  65 NE8       30.15S
SIOUX CITY     CLEAR     45  35  68 CALM      30.14R
SPENCER        CLEAR     38  30  73 N5        30.16S
STORM LAKE     CLEAR     45  28  53 E3        30.15S
$$

ABBREVIATIONS USED IN REMARKS
   TC - TEMPERATURE IN CELSIUS
  WCI - WIND CHILL INDEX
   HX - HEAT INDEX
  VSB - VISIBILITY



USA.gov is the U.S. government's official web portal to all federal, state and local government web resources and services.